Location: Cheb
(50.0670°N, 12.3670°E)
Time: 21:36:31
(UTC+01:00)

ISS - Visible Passes

Search period start: 09 December 2018 00:00
Search period end: 19 December 2018 00:00
Orbit: 401 x 408 km, 51.6° (Epoch: 10 December)

Date Brightness Start Highest point End Pass type
(mag) Time Alt. Az. Time Alt. Az. Time Alt. Az.
09 Dec -3.9 16:45:35 10° WNW 16:48:52 75° N 16:52:07 10° E visible
09 Dec -2.6 18:22:11 10° W 18:25:13 36° SSW 18:25:53 32° S visible
10 Dec -3.2 17:29:54 10° WNW 17:33:06 55° SSW 17:36:18 10° SE visible
10 Dec -0.8 19:07:31 10° WSW 19:09:00 13° SW 19:09:00 13° SW visible
11 Dec -1.3 18:14:33 10° W 18:17:03 20° SW 18:19:32 10° SSE visible
12 Dec -1.9 17:22:03 10° W 17:24:59 31° SSW 17:27:55 10° SSE visible
13 Dec -0.4 18:07:59 10° WSW 18:08:41 11° SW 18:09:25 10° SSW visible
14 Dec -0.8 17:14:28 10° W 17:16:42 17° SW 17:18:56 10° S visible
